Regional Weather Roundup
Issued by NWS

Home | Current Version | Previous Version | Graphics & Text | Print | Product List | Glossary On
Versions: 1 2 3 4 5 6 7 8 9 10 11 12 13 14 15 16 17 18 19 20 21 22 23 24 25 26 27 28 29 30 31 32 33 34 35 36 37 38 39 40 41 42 43 44 45 46 47 48 49 50
000
ASUS43 KMPX 162210
RWRMN
WEATHER ROUNDUP FOR MINNESOTA
NATIONAL WEATHER SERVICE TWIN CITIES/CHANHASSEN MN
500 PM CDT WED AUG 16 2017


NOTE: "FAIR" INDICATES FEW OR NO CLOUDS BELOW 12,000 FEET WITH NO
SIGNIFICANT WEATHER AND/OR OBSTRUCTIONS TO VISIBILITY. N/A MEANS
CURRENT SKY AND/OR WEATHER CONDITIONS ARE NOT AVAILABLE.

MNZ060>063-068>070-162300-
   Twin Cities Metro

CITY           SKY/WX    TMP DP  RH WIND       PRES   REMARKS
TWIN CITIES    CLOUDY    78  68  71 E10       29.76F
ST PAUL        CLOUDY    77  71  82 E9        29.76F
CRYSTAL        CLOUDY    76  66  71 E9        29.75F
BLAINE         CLOUDY    79  72  78 E9        29.77F
LAKEVILLE      CLOUDY    75  70  83 E10       29.75F
EDEN PRAIRIE   CLOUDY    77  69  76 E9        29.74F
SOUTH ST PAUL  CLOUDY    78  69  74 E6        29.76F
LAKE ELMO      FAIR      77  70  78 E9        29.79F
$$
MNZ001>005-007-008-013>017-022>024-027-028-162300-
   Northwest Minnesota

CITY           SKY/WX    TMP DP  RH WIND       PRES   REMARKS
BEMIDJI        RAIN      65  64  96 SE6       29.86S
HALLOCK        CLOUDY    70  64  83 E7        29.86F
ROSEAU         LGT RAIN  64  59  82 E7        29.88S
WARROAD        LGT RAIN  63  59  88 E8        29.89S
THIEF RVR FALL CLOUDY    66  64  93 NE5       29.86S
CROOKSTON      CLOUDY    64  64 100 N6        29.84F FOG
FOSSTON        DRIZZLE   64  63  94 CALM      29.85F
DETROIT LAKES  LGT RAIN  66  64  94 E5        29.85F
MOORHEAD       LGT RAIN  66  64  94 N6        29.83S
PARK RAPIDS    LGT RAIN  67  65  93 SE5       29.84F
MAHNOMEN       DRIZZLE   65  64  94 CALM      29.84F
$$
MNZ006-009>011-018-025>026-162300-
   North Central Minnesota

CITY           SKY/WX    TMP DP  RH WIND       PRES   REMARKS
BAUDETTE       RAIN      63  63 100 E9        29.88F FOG
FLAG ISLAND    DRIZZLE   63  61  94 E3        29.90R
INTL FALLS     RAIN      62  60  93 E9        29.91F FOG
WASKISH        DRIZZLE   64  63  94 E5        29.87F
BIG FORK       HVY RAIN  64  63  94 CALM      29.89S
LONGVILLE      DRIZZLE   64  63  94 CALM      29.86S
GRAND RAPIDS   LGT RAIN  63  62  97 SE7       29.90S
CRANE LAKE     RAIN      63  61  94 CALM      29.94R
ORR            RAIN      61  57  88 CALM      29.89F
COOK           DRIZZLE   64  63  94 MISG      29.91S
WALKER         DRIZZLE   64  63  96 SE3       29.85F
$$
MNZ012-019>021-037-162300-
   Northeast Minnesota

CITY           SKY/WX    TMP DP  RH WIND       PRES   REMARKS
DULUTH         LGT RAIN  62  61  96 E14       29.89F FOG
ELY            DRIZZLE   63  59  88 E5        29.94S
HIBBING        LGT RAIN  63  62  97 SE10      29.89F
EVELETH        RAIN      63  58  85 E6        29.91F
DULUTH HARBOR  RAIN      63  61  94 NE21      29.90S
TWO HARBORS    CLOUDY    64  59  82 E8        29.90F
GRAND MARAIS     N/A     63  59  87 E9        29.96F
G MARAIS ARPRT MOSUNNY   63  52  67 E7        30.00F
$$
MNZ029>031-032-039>041-046>048-054>057-064-162300-
   West Central Minnesota

CITY           SKY/WX    TMP DP  RH WIND       PRES   REMARKS
FERGUS FALLS   LGT RAIN  66  66 100 CALM      29.81S
WHEATON        RAIN      66  64  94 N3        29.80F
MORRIS         LGT RAIN  68  66  94 E7        29.78F
ALEXANDRIA     LGT RAIN  68  66  93 NE8       29.82F
ELBOW LAKE     DRIZZLE   67  67  99 SE6       29.81F
WADENA         LGT RAIN  66  66 100 E5        29.83F
GLENWOOD       LGT RAIN  68  66  94 NE7       29.80F
APPLETON       LGT RAIN  70  66  88 NE7       29.76F
BENSON         RAIN      70  66  88 E5        29.79F
ORTONVILLE     LGT RAIN  68  64  88 MISG      29.77F
MADISON        RAIN      70  70 100 NE12      29.75F
WILLMAR        HVY RAIN  68  68 100 CALM      29.78S
$$
MNZ033>034-036-042>043-049>051-058-059-162300-
   Central Minnesota

CITY           SKY/WX    TMP DP  RH WIND       PRES   REMARKS
ST CLOUD       CLOUDY    70  68  93 NE5       29.79F
SAUK CENTRE    LGT RAIN  67  66  96 NE9       29.80F
PAYNESVILLE    RAIN      67  67  98 NE9       29.79F
AITKIN         CLOUDY    64  63  94 E5        29.85S FOG
PINE RIVER     RAIN      63  63 100 E3        29.88F
BRAINERD         N/A    N/A N/A N/A MISG      29.85F
STAPLES        RAIN      66  64  94 CALM      29.84S
LONG PRAIRIE   LGT RAIN  64  64 100 N7        29.81F
LITTLE FALLS   LGT RAIN  64  63  94 NE3       29.82F
LITCHFIELD     DRIZZLE   70  70 100 NE8       29.77F
BUFFALO        CLOUDY    73  66  79 NE7       29.78F
MAPLE LAKE     CLOUDY    73  68  86 NE6       29.78F
HUTCHINSON     RAIN      71  69  95 NE9       29.75F
$$
MNZ037-044-045-052-053-162300-
   East Central Minnesota

CITY           SKY/WX    TMP DP  RH WIND       PRES   REMARKS
PRINCETON      CLOUDY    73  68  83 NE3       29.80F
MORA           CLOUDY    70  64  83 E5        29.84F
RUSH CITY      HVY RAIN  75  67  77 E3        29.82F
MOOSE LAKE     CLOUDY    63  61  94 NE7       29.84F
HINCKLEY       CLOUDY    72  66  83 E5        29.83F
CLOQUET        HVY RAIN  61  59  94 E10       29.89S
MCGREGOR       CLOUDY    64  61  88 E6        29.87F
$$
MNZ071>073-080-081-089-090-097-098-162300-
   Southwest Minnesota

CITY           SKY/WX    TMP DP  RH WIND       PRES   REMARKS
MONTEVIDEO     LGT RAIN  68  68 100 E8        29.75F
GRANITE FALLS  RAIN      69  68  97 N13       29.74F
CANBY          LGT RAIN  68  66  94 CALM      29.75F
MARSHALL       RAIN      67  66  97 NE10      29.71F FOG
REDWOOD FALLS  HVY RAIN  69  67  93 NE7G17    29.69F VSB 1/2
OLIVIA         RAIN      70  68  94 NE12      29.72F
PIPESTONE      RAIN      66  64  94 NE8       29.70F
WINDOM         RAIN      72  70  94 E5        29.69F
WORTHINGTON    LGT RAIN  69  66  90 S7        29.69F
JACKSON        CLOUDY    70  70 100 S12       29.69F
TRACY          HVY RAIN  68  68 100 NE12      29.70F
SLAYTON        RAIN      66  61  86 NE9       29.71F
$$
MNZ065>067-074>077-082>085-091>093-162300-
   South Central Minnesota

CITY           SKY/WX    TMP DP  RH WIND       PRES   REMARKS
MANKATO        CLOUDY    77  71  82 E17G23    29.69F
NEW ULM        LGT RAIN  72  70  94 E5        29.69F
ST JAMES       HVY RAIN  72  70  94 S5        29.69F
FAIRMONT       HVY RAIN  72  72 100 S20       29.69F FOG
GLENCOE        CLOUDY    73  72  94 NE6       29.73F
FARIBAULT      PTSUNNY   79  70  73 E12G18    29.74F
OWATONNA       CLOUDY    79  70  73 E12G17    29.73F
WASECA         CLOUDY    77  68  73 E15       29.73F
ALBERT LEA     LGT RAIN  75  75 100 E7        29.72F
$$
MNZ078>079-086>088-094>096-162300-
   Southeast Minnesota

CITY           SKY/WX    TMP DP  RH WIND       PRES   REMARKS
ROCHESTER      CLOUDY    77  70  79 E15       29.77F
RED WING       CLOUDY    81  66  61 E10       29.76F
STANTON        CLOUDY    79  69  73 E10       29.74F
DODGE CENTER   CLOUDY    77  68  73 E8        29.76F
WINONA         CLOUDY    81  68  65 SE13      29.78F
AUSTIN         CLOUDY    77  70  78 SE15      29.73F
PRESTON        MOSUNNY   79  68  69 E10G17    29.77F
$$
ABBREVIATIONS USED IN REMARKS
   TC - TEMPERATURES IN CELSIUS
  WCI - WIND CHILL INDEX
   HX - HEAT INDEX
  VSB - VISIBILITY
$$




USA.gov is the U.S. government's official web portal to all federal, state and local government web resources and services.